sat.trackr.live / text

‹ back to catalog

SATMAR

NORAD 64551 · 2025-135Z

PAYLOAD ACTIVE UNKNOWN

§ Identity

Operator
Country
SPN
Launch date
2025-06-23
Launch site
AFWTR
Launch vehicle
Mass (kg)
RCS (m²)

External: N2YO · Heavens-Above · Gunter

§ Orbital elements

Epoch: 2026-09-21T22:18:21.723840Z

Period
94.35 min
Inclination
97.4696°
Eccentricity
0.0000340
Mean motion
15.26179583 rev/d
Perigee alt
487.0 km
Apogee alt
487.5 km
Semi-major
6,865.4 km
B*
2.1447e-4
RAAN
20.4820°
Arg perigee
85.3415°
Mean anomaly
274.7863°
Rev number
6,967

§ Raw data

SATMAR1 64551U 25135Z   26264.92941810  .00005470  00000+0  21447-3 0  99972 64551  97.4696  20.4820 0000340  85.3415 274.7863 15.26179583 69675

JSON: /api/v1/satellites/64551 · /tle

For live sub-satellite position, see the globe view (requires WebGL).

§ Visibility from observer

Set your observer location to see the next 7 days of passes ≥ 10°. The values pass through the URL so the page stays shareable.

No JS? Fill the form by hand. The geolocation button needs JavaScript.

§ Radio — SatNOGS DB

ModeDescriptionDownlinkUplink
FM Mode S - Transmitter 1 2.222 GHz
FM Mode S - Transmitter 2 2.281 GHz
FM Mode V - VDES 1 161.863 MHz
FM Mode V - VDES 2 157.263 MHz
FM Telemetry 400.501 MHz

5 transmitters · refreshed weekly from db.satnogs.org